[[{"header":{"parameterUnit":"m.s-1","parameterCategory":1,"la1":30.2991,"la2":30.254,"lo1":-89.0895,"lo2":-89.0444,"dy":0.0017,"dx":0.0017,"nx":28,"ny":28,"refTime":"2023-09-16T03:00:00:Z","depth":0,"parameterNumber":2,"parameterNumberName":"U-component_of_WINDS"},"data":[0,0,0,0,0,0,0,0,0,0,0,0,0,0,0,0,0,0,0,0,0,0,0,0,0,0,0,0,0,0,0,0,0,0,0,0,0,0,0,0,0,0,0,0,0,0,0,0,0,0,0,0,0,0,0,0,0,0,0.2839,0.2838,0,0.2733,0.2732,0.2731,0.2684,0.2684,0.2684,0.2684,0.2572,0.2569,0.2566,0,0,0,0,0,0,0,0,0,0,0,0,0,0.2997,0.2995,0.2839,0.2838,0.2836,0.2733,0.2732,0.273,0.2684,0.2684,0.2684,0.2684,0.2573,0.2569,0.2566,0,0,0,0,0,0,0,0,0,0,0,0,0,0.2914,0.2994,0.2839,0.2801,0.2796,0.2734,0.2732,0.273,0.2684,0.2684,0.2684,0.2684,0.2574,0.257,0.2565,0.2532,0,0,0.2551,0.2549,0,0,0,0,0,0,0,0,0.2919,0.2908,0.2808,0.2803,0.2798,0.2722,0.2747,0.2664,0.2683,0.2726,0.2684,0.2684,0.2621,0.2613,0.2592,0.2527,0.2522,0.255,0.2548,0.2546,0.2544,0,0,0,0,0,0,0,0.2924,0.2912,0.2797,0.2806,0.28,0.2788,0.2776,0.2731,0.2674,0.2722,0.2719,0.2707,0.2619,0.2597,0.2589,0.252,0.2551,0.2546,0.2543,0.2542,0.2422,0.2421,0,0,0,0,0,0,0.2937,0.2917,0.28,0.2794,0.286,0.2785,0.2772,0.2746,0.2674,0.2663,0.2707,0.2705,0.2605,0.2595,0.2585,0.2542,0.2546,0.2541,0.2539,0.2422,0.2422,0.2421,0,0,0,0,0,0,0.2941,0.2927,0.2805,0.2855,0.2838,0.2782,0.2753,0.2744,0.2722,0.2663,0.2652,0.2696,0.2605,0.2592,0.2546,0.2537,0.2539,0.2535,0.2423,0.2422,0.2422,0.2454,0,0,0,0,0,0,0.2945,0.2929,0.2916,0.2855,0.2836,0.2768,0.2753,0.2742,0.2715,0.2711,0.2649,0.2639,0.2604,0.2553,0.2541,0.2531,0.2531,0.2423,0.2422,0.2422,0.2454,0.2455,0.2456,0,0,0,0,0,0.2951,0.2929,0.2916,0.2902,0.2819,0.2767,0.2756,0.2718,0.2714,0.2701,0.2662,0.2641,0.254,0.2549,0.2535,0.2523,0.2423,0.2423,0.2422,0.2453,0.2455,0.2456,0,0,0,0,0,0,0.2989,0.292,0.2905,0.2862,0.2821,0.276,0.2741,0.2721,0.2679,0.2678,0.2631,0.2617,0.2575,0.2544,0.2555,0.2487,0.248,0.2476,0.2509,0.2509,0.2511,0.2518,0.2527,0,0,0,0,0,0.2993,0.2958,0.2899,0.2866,0.2847,0.2798,0.2774,0.2748,0.2703,0.2686,0.2644,0.26,0.2559,0.2533,0.2491,0.2449,0.2435,0.2434,0.2435,0.2437,0.2434,0.2409,0.2408,0.2418,0.2418,0.2419,0,0,0.2999,0.2957,0.2937,0.2873,0.2838,0.2802,0.2784,0.2746,0.2719,0.2679,0.2634,0.2602,0.255,0.2506,0.2484,0.2479,0.2428,0.2436,0.2437,0.2433,0.2408,0.2407,0.2406,0.2418,0.2418,0.2418,0,0,0.2992,0.2957,0.2927,0.2893,0.2841,0.2809,0.2802,0.2744,0.2721,0.2675,0.2645,0.2611,0.2541,0.2505,0.2478,0.2459,0.2437,0.2447,0.2452,0.2429,0.2428,0.2427,0.242,0.2418,0.2445,0.2445,0.2445,0,0.3006,0.2952,0.2913,0.2878,0.285,0.2815,0.2783,0.2752,0.2689,0.267,0.2665,0.2577,0.254,0.2487,0.2482,0.2462,0.2451,0.2453,0.2432,0.243,0.2429,0.2421,0.2419,0.2446,0.2446,0.2446,0.2446,0,0.2971,0.2934,0.2916,0.2857,0.2828,0.2794,0.275,0.2724,0.2701,0.267,0.2623,0.2577,0.2526,0.2511,0.2488,0.2455,0.2453,0.2441,0.2433,0.243,0.2422,0.2419,0.2448,0.2448,0.2447,0.2447,0,0,0.2984,0.2906,0.29,0.2873,0.2814,0.2784,0.2749,0.2701,0.2679,0.2637,0.2606,0.2548,0.2537,0.2506,0.2478,0.2458,0.2445,0.2447,0.2445,0.2448,0.2405,0.2415,0.2412,0.2431,0.243,0.243,0.241,0,0.2968,0.2905,0.287,0.2821,0.2786,0.2753,0.2722,0.2682,0.2652,0.2616,0.2582,0.2542,0.253,0.2511,0.2489,0.2451,0.2436,0.2452,0.24,0.2399,0.2413,0.2408,0.2417,0.2401,0.2406,0.2406,0.2405,0,0.2942,0.2902,0.285,0.2796,0.278,0.2753,0.2706,0.2673,0.2627,0.2606,0.2573,0.2546,0.2506,0.2502,0.2447,0.2459,0.2436,0.2414,0.2412,0.2405,0.2401,0.24,0.2394,0.2392,0.24,0.2401,0.2401,0,0.2955,0.2889,0.2849,0.2828,0.2763,0.2745,0.2718,0.2672,0.2645,0.2604,0.2586,0.254,0.2514,0.2479,0.244,0.2441,0.2388,0.2381,0.2369,0.237,0.2358,0.2359,0.2348,0.2345,0.2345,0.2345,0.2345,0,0.2941,0.291,0.2855,0.283,0.2795,0.2755,0.272,0.269,0.265,0.2618,0.2586,0.2556,0.2507,0.2471,0.244,0.2399,0.2388,0.2369,0.2361,0.2371,0.2374,0.2354,0.2354,0.2344,0.2344,0.2345,0.2345,0,0.295,0.2911,0.2866,0.281,0.2795,0.2771,0.2722,0.2697,0.2666,0.2626,0.2614,0.2564,0.252,0.2478,0.2419,0.2398,0.2357,0.2347,0.2373,0.2368,0.2358,0.236,0.2334,0.2328,0.233,0.233,0.233,0,0.2943,0.2919,0.2861,0.2838,0.2811,0.2775,0.2748,0.2708,0.2681,0.2627,0.2608,0.2562,0.2523,0.2455,0.2413,0.2367,0.2355,0.2349,0.2348,0.2359,0.2354,0.2356,0.2353,0.235,0.235,0.235,0.235,0,0.2934,0.2917,0.288,0.2837,0.2806,0.2769,0.2732,0.2715,0.2667,0.2638,0.2594,0.2564,0.2505,0.246,0.241,0.238,0.2357,0.2352,0.2346,0.2356,0.2372,0.2362,0.2375,0.2352,0.2352,0.2352,0.2352,0.2351,0.2934,0.2911,0.2867,0.2827,0.2795,0.2761,0.2734,0.2701,0.2664,0.2613,0.2592,0.2547,0.2501,0.2432,0.2403,0.2366,0.2361,0.2353,0.2351,0.235,0.2352,0.2379,0.2357,0.2357,0.2357,0.2357,0.2357,0,0.2923,0.2893,0.2857,0.2807,0.2775,0.2759,0.2717,0.2691,0.2653,0.2613,0.2576,0.2526,0.2482,0.2437,0.239,0.237,0.2358,0.2359,0.2359,0.2352,0.236,0.2369,0.2369,0.2369,0.2369,0.2369,0.2369,0.2369,0.2913,0.2874,0.2852,0.2796,0.2766,0.2723,0.2701,0.2669,0.2637,0.2583,0.2547,0.2519,0.2476,0.2427,0.2386,0.2373,0.2357,0.2361,0.2345,0.2353,0.2352,0.2351,0.2359,0.2358,0.2358,0.2341,0.2341,0.2341]},{"header":{"parameterUnit":"m.s-1","parameterCategory":1,"la1":30.2991,"la2":30.254,"lo1":-89.0895,"lo2":-89.0444,"dy":0.0017,"dx":0.0017,"nx":28,"ny":28,"refTime":"2023-09-16T03:00:00:Z","depth":0,"parameterNumber":3,"parameterNumberName":"V-component_of_WINDS"},"data":[0,0,0,0,0,0,0,0,0,0,0,0,0,0,0,0,0,0,0,0,0,0,0,0,0,0,0,0,0,0,0,0,0,0,0,0,0,0,0,0,0,0,0,0,0,0,0,0,0,0,0,0,0,0,0,0,0,0,3.9515,3.9516,0,3.9579,3.9579,3.958,3.9548,3.9546,3.9544,3.9543,3.9601,3.9604,3.9607,0,0,0,0,0,0,0,0,0,0,0,0,0,3.9359,3.9362,3.9515,3.9516,3.9517,3.9578,3.9579,3.958,3.9548,3.9546,3.9544,3.9542,3.96,3.9604,3.9608,0,0,0,0,0,0,0,0,0,0,0,0,0,3.9425,3.9363,3.9515,3.9508,3.9509,3.9578,3.9579,3.958,3.9548,3.9546,3.9543,3.9541,3.9599,3.9604,3.9608,3.9686,0,0,3.9622,3.9624,0,0,0,0,0,0,0,0,3.9421,3.943,3.9509,3.9509,3.9509,3.9553,3.9545,3.9616,3.9549,3.9533,3.9543,3.954,3.9587,3.9592,3.9609,3.9689,3.9692,3.9623,3.9626,3.9628,3.9629,0,0,0,0,0,0,0,3.9417,3.9428,3.954,3.951,3.951,3.95,3.9506,3.9559,3.9573,3.9534,3.9532,3.954,3.9586,3.9605,3.961,3.9692,3.9623,3.9627,3.963,3.9631,3.9837,3.9839,0,0,0,0,0,0,3.9413,3.9424,3.9538,3.9542,3.9458,3.9504,3.9512,3.9541,3.9572,3.9575,3.9542,3.9539,3.9598,3.9605,3.9612,3.9705,3.9628,3.9632,3.9635,3.9834,3.9837,3.984,0,0,0,0,0,0,3.941,3.9424,3.9536,3.9482,3.9496,3.951,3.9543,3.9544,3.9562,3.9578,3.958,3.9559,3.9597,3.9606,3.9668,3.9706,3.9634,3.9638,3.9831,3.9835,3.9839,3.9891,0,0,0,0,0,0,3.9406,3.9423,3.9455,3.9484,3.9499,3.9593,3.9545,3.9547,3.9571,3.9567,3.9595,3.9597,3.9595,3.9661,3.9673,3.9711,3.9642,3.9827,3.9833,3.9837,3.9886,3.9896,3.9905,0,0,0,0,0,3.94,3.9466,3.9457,3.9471,3.954,3.9595,3.9604,3.9602,3.9575,3.9605,3.9615,3.9596,3.97,3.9668,3.9681,3.9721,3.9825,3.9831,3.9837,3.9882,3.9894,3.9905,0,0,0,0,0,0,3.944,3.947,3.946,3.9537,3.9564,3.959,3.9629,3.9616,3.965,3.9644,3.9639,3.9645,3.971,3.9721,3.9685,3.9797,3.9758,3.9767,3.9788,3.98,3.9809,3.9805,3.9646,0,0,0,0,0,3.9458,3.9503,3.9526,3.9592,3.9606,3.9615,3.9639,3.9636,3.9662,3.9673,3.9687,3.9712,3.975,3.9775,3.9812,3.9887,3.9891,3.9921,3.993,3.9938,3.9946,3.9985,3.9998,3.986,3.986,3.986,0,0,3.9495,3.9517,3.9546,3.96,3.9621,3.9665,3.9625,3.9674,3.9706,3.968,3.974,3.9751,3.9778,3.9847,3.9878,3.9859,3.9985,3.9946,3.9952,3.9956,3.9992,4.0005,4.0017,3.9864,3.9863,3.9863,0,0,3.9586,3.9608,3.9665,3.9686,3.9718,3.9723,3.9736,3.9764,3.9771,3.9831,3.9812,3.9848,3.9915,3.9934,3.9953,4.0048,4.0031,4.006,4.011,4.0148,4.0159,4.0169,4.0202,4.0214,4.0067,4.0068,4.0068,0,3.9628,3.9696,3.9695,3.9745,3.9769,3.9749,3.9804,3.9824,3.9865,3.9881,3.9859,3.9941,3.9957,4.003,4.0053,4.0069,4.0082,4.0057,4.0158,4.0168,4.0177,4.0208,4.0221,4.0071,4.007,4.007,4.007,0,3.9745,3.9793,3.9834,3.9876,3.9904,3.9957,3.9961,3.9989,3.9982,3.9989,4.0049,4.0068,4.0107,4.0123,4.0117,4.0194,4.0181,4.0159,4.012,4.0193,4.0222,4.0235,4.0075,4.0074,4.0073,4.0073,0,0,3.9865,3.9904,3.9919,3.9937,3.997,4.0005,4.0055,4.0095,4.0118,4.0146,4.0187,4.0242,4.0221,4.0242,4.0237,4.0271,4.0344,4.0244,4.0244,4.0261,4.0428,4.0445,4.0459,4.0332,4.0335,4.0337,4.0426,0,3.9957,4.0048,4.0047,4.013,4.0172,4.0152,4.0196,4.0219,4.0225,4.026,4.0266,4.0306,4.0276,4.0288,4.032,4.0328,4.0377,4.0322,4.0368,4.037,4.0363,4.0475,4.0493,4.0577,4.0437,4.0439,4.0441,0,4.0078,4.0112,4.02,4.0224,4.0241,4.0281,4.0316,4.035,4.0374,4.0377,4.04,4.0389,4.0437,4.0396,4.0461,4.0423,4.0442,4.0448,4.0451,4.0456,4.041,4.0482,4.0603,4.0616,4.0459,4.0457,4.0456,0,4.0156,4.0222,4.0283,4.0299,4.0329,4.0357,4.037,4.0392,4.0416,4.0445,4.0459,4.0494,4.0512,4.0538,4.0536,4.0506,4.0601,4.056,4.0603,4.0603,4.0625,4.0623,4.0751,4.0637,4.0636,4.0636,4.0636,0,4.026,4.0314,4.0318,4.0356,4.0415,4.0411,4.0469,4.0479,4.0498,4.0535,4.0519,4.0553,4.0548,4.0582,4.058,4.0634,4.0642,4.0644,4.0643,4.0646,4.0646,4.0658,4.0652,4.064,4.0639,4.0638,4.0638,0,4.0357,4.0362,4.0427,4.045,4.0457,4.0499,4.0517,4.0551,4.0556,4.0603,4.0613,4.062,4.0659,4.0659,4.0703,4.0702,4.0767,4.0759,4.0759,4.0758,4.08,4.0796,4.094,4.0959,4.0833,4.0834,4.0835,0,4.0423,4.0465,4.0492,4.0516,4.0532,4.0571,4.0594,4.0591,4.0616,4.0646,4.0675,4.0713,4.0743,4.0805,4.0813,4.0846,4.0839,4.0887,4.0843,4.0844,4.0839,4.0836,4.084,4.0895,4.0897,4.0898,4.0899,0,4.054,4.054,4.0576,4.0612,4.0641,4.0669,4.0694,4.0714,4.0713,4.0741,4.0782,4.0805,4.085,4.0887,4.0918,4.0929,4.0914,4.0912,4.0924,4.0927,4.0926,4.0926,4.0782,4.0909,4.0908,4.0907,4.0907,4.0906,4.0623,4.0658,4.0683,4.0722,4.0741,4.0765,4.0798,4.0806,4.0841,4.0878,4.0873,4.0917,4.0938,4.0979,4.0992,4.1025,4.1008,4.1025,4.103,4.1034,4.1038,4.092,4.1031,4.1031,4.103,4.103,4.103,0,4.0739,4.0753,4.0789,4.0826,4.0856,4.084,4.0866,4.0892,4.0932,4.0953,4.0983,4.1028,4.1063,4.1073,4.1106,4.1131,4.1124,4.1139,4.1138,4.114,4.1052,4.1039,4.1144,4.1144,4.1144,4.1144,4.1144,4.1144,4.0802,4.0861,4.0863,4.0929,4.0942,4.0987,4.1003,4.1024,4.1041,4.1093,4.1122,4.1128,4.1144,4.1178,4.1209,4.121,4.1223,4.1241,4.124,4.1158,4.1146,4.1136,4.1123,4.1244,4.1244,4.1325,4.1326,4.1327]}]]